AGILE                   
1 31135U 07013A   19259.58342456  .00002015  00000-0  27637-4 0  9994
2 31135   2.4668 181.8326 0012252 205.7096 154.2348 15.31756312322425
PSLV R/B [AAM]          
1 31136U 07013B   19259.70327872  .00004880  00000-0  67074-4 0  9995
2 31136   2.5051 306.0983 0004898 333.7089  26.2717 15.47111863691794